Radiation Dose measured at exhaust stack monitor of Fukushima Daiichi Nuclear Power Station
Date,Time,Unit 5 6 shared exhaust cylinders,Wind Direction,Wind Velocity(m/s)
2023/06/19,00:00,3.7,north,5.4
2023/06/19,00:10,3.7,north,4.6
2023/06/19,00:20,3.7,north,4.5
2023/06/19,00:30,3.6,north,3.9
2023/06/19,00:40,3.8,north,3.5
2023/06/19,00:50,3.7,north,4.1
2023/06/19,01:00,3.5,north-northwest,4.2
2023/06/19,01:10,3.6,north-northwest,4.3
2023/06/19,01:20,3.7,north-northwest,4.2
2023/06/19,01:30,3.6,north-northwest,4.6
2023/06/19,01:40,3.9,north-northwest,3.6
2023/06/19,01:50,3.8,north-northwest,5.0
2023/06/19,02:00,3.9,north-northwest,4.9
2023/06/19,02:10,3.8,north-northwest,5.0
2023/06/19,02:20,3.7,north-northwest,5.1
2023/06/19,02:30,3.7,north-northwest,5.1
2023/06/19,02:40,3.8,north-northwest,5.0
2023/06/19,02:50,3.7,north-northwest,5.5
2023/06/19,03:00,3.6,north-northwest,4.9
2023/06/19,03:10,3.6,north-northwest,4.6
2023/06/19,03:20,3.6,north-northwest,5.7
2023/06/19,03:30,3.7,north-northwest,6.0
2023/06/19,03:40,3.6,north-northwest,4.8
2023/06/19,03:50,3.6,north-northwest,5.5
2023/06/19,04:00,3.6,north-northwest,5.1
2023/06/19,04:10,3.7,north-northwest,5.6
2023/06/19,04:20,3.6,north-northwest,5.3
2023/06/19,04:30,3.6,north,5.8
2023/06/19,04:40,3.7,north-northwest,5.7
2023/06/19,04:50,3.8,north,5.8
2023/06/19,05:00,3.8,north,5.4
2023/06/19,05:10,3.5,north,4.9
2023/06/19,05:20,3.6,north-northwest,5.4
2023/06/19,05:30,3.8,north-northwest,5.6
2023/06/19,05:40,3.7,north-northwest,5.4
2023/06/19,05:50,3.7,north,5.4
2023/06/19,06:00,3.7,north-northwest,6.2
2023/06/19,06:10,3.6,north,5.6
2023/06/19,06:20,3.6,north,5.3
2023/06/19,06:30,3.4,north-northwest,5.3
2023/06/19,06:40,3.7,north-northwest,6.5
2023/06/19,06:50,3.7,north,4.6
2023/06/19,07:00,3.7,north,5.6
2023/06/19,07:10,3.7,north-northeast,5.1
2023/06/19,07:20,3.7,north-northeast,6.1
2023/06/19,07:30,3.7,north-northeast,7.8
2023/06/19,07:40,3.7,north-northeast,7.6
2023/06/19,07:50,3.7,north-northeast,6.7
2023/06/19,08:00,3.5,north-northeast,6.4
2023/06/19,08:10,3.5,north,6.2
2023/06/19,08:20,3.7,north,7.1
2023/06/19,08:30,3.7,north,6.2
2023/06/19,08:40,3.7,north,9.6
2023/06/19,08:50,3.8,north,8.7
2023/06/19,09:00,3.8,north,7.9
2023/06/19,09:10,3.7,north,8.3
2023/06/19,09:20,3.7,north,8.3
2023/06/19,09:30,3.7,north,7.5
2023/06/19,09:40,3.7,north-northeast,7.1
2023/06/19,09:50,3.7,north-northeast,6.3
2023/06/19,10:00,3.7,north-northeast,6.6
2023/06/19,10:10,3.6,north-northeast,6.1
2023/06/19,10:20,3.7,north-northeast,5.6
2023/06/19,10:30,3.7,north-northeast,5.5
2023/06/19,10:40,3.6,north-northeast,5.3
2023/06/19,10:50,3.7,north-northeast,5.4
2023/06/19,11:00,3.7,north-northeast,4.9
2023/06/19,11:10,3.6,north-northeast,5.4
2023/06/19,11:20,3.8,north-northeast,4.7
2023/06/19,11:30,3.7,northeast,5.0
2023/06/19,11:40,3.6,north-northeast,4.7
2023/06/19,11:50,3.7,northeast,4.7
2023/06/19,12:00,3.7,northeast,5.6
2023/06/19,12:10,3.8,northeast,5.7
2023/06/19,12:20,3.7,north-northeast,6.8
2023/06/19,12:30,3.7,north-northeast,6.9
2023/06/19,12:40,3.7,north-northeast,7.4
2023/06/19,12:50,3.6,north-northeast,7.5
2023/06/19,13:00,3.7,north-northeast,7.1
2023/06/19,13:10,3.8,north-northeast,7.7
2023/06/19,13:20,3.7,north-northeast,8.0
2023/06/19,13:30,3.9,north-northeast,8.1
2023/06/19,13:40,3.7,northeast,7.4
2023/06/19,13:50,3.8,north-northeast,6.8
2023/06/19,14:00,3.5,north-northeast,6.9
2023/06/19,14:10,3.7,northeast,5.8
2023/06/19,14:20,3.6,north-northeast,5.4
2023/06/19,14:30,3.6,north-northeast,4.8
2023/06/19,14:40,3.6,northeast,4.7
2023/06/19,14:50,3.7,north-northeast,4.1
2023/06/19,15:00,3.8,north-northeast,4.1
2023/06/19,15:10,3.6,northeast,4.6
2023/06/19,15:20,3.8,northeast,4.2
2023/06/19,15:30,3.5,northeast,4.6
2023/06/19,15:40,3.6,northeast,4.2
2023/06/19,15:50,3.6,northeast,4.5
2023/06/19,16:00,3.8,north-northeast,3.8
2023/06/19,16:10,3.9,north-northeast,3.9
2023/06/19,16:20,3.8,northeast,3.6
2023/06/19,16:30,3.7,north-northeast,4.0
2023/06/19,16:40,3.6,north-northeast,3.5
2023/06/19,16:50,3.6,northeast,4.1
2023/06/19,17:00,3.6,north-northeast,4.3
2023/06/19,17:10,3.7,north-northeast,3.3
2023/06/19,17:20,3.6,north-northeast,3.7
2023/06/19,17:30,3.8,northeast,2.6
2023/06/19,17:40,3.5,north-northeast,2.6
2023/06/19,17:50,3.5,north-northeast,3.4
2023/06/19,18:00,3.6,north-northeast,3.5
2023/06/19,18:10,3.7,northeast,2.0
2023/06/19,18:20,3.8,north-northeast,3.5
2023/06/19,18:30,3.8,northeast,2.8
2023/06/19,18:40,3.6,north,2.6
2023/06/19,18:50,3.7,north-northeast,2.5
2023/06/19,19:00,3.7,north-northeast,1.9
2023/06/19,19:10,3.6,north-northeast,2.6
2023/06/19,19:20,3.7,northeast,3.5
2023/06/19,19:30,3.5,northeast,3.4
2023/06/19,19:40,3.6,north-northeast,3.0
2023/06/19,19:50,3.6,north-northeast,3.0
2023/06/19,20:00,3.6,north-northeast,2.5
2023/06/19,20:10,3.7,north-northeast,2.5
2023/06/19,20:20,3.7,north-northeast,2.3
2023/06/19,20:30,3.6,north-northeast,2.5
2023/06/19,20:40,3.7,north,2.2
2023/06/19,20:50,3.6,north-northeast,2.3
2023/06/19,21:00,3.6,north-northeast,1.5
2023/06/19,21:10,3.7,northeast,3.6
2023/06/19,21:20,3.7,northeast,3.8
2023/06/19,21:30,3.7,northeast,3.3
2023/06/19,21:40,3.7,northeast,3.1
2023/06/19,21:50,3.6,north-northeast,3.2
2023/06/19,22:00,3.5,northeast,2.3
2023/06/19,22:10,3.6,northeast,2.3
2023/06/19,22:20,3.6,east-northeast,2.3
2023/06/19,22:30,3.7,northeast,2.0
2023/06/19,22:40,3.6,northeast,1.9
2023/06/19,22:50,3.7,northeast,2.3
2023/06/19,23:00,3.6,north-northeast,3.0
2023/06/19,23:10,3.7,northeast,2.6
2023/06/19,23:20,3.7,northeast,2.3
2023/06/19,23:30,3.7,northeast,0.9
2023/06/19,23:40,3.6,north,1.2
2023/06/19,23:50,3.7,north,1.4
